Voltar ao catálogo

STARLINK-11324

AtivoComunicaçõesVLEO
NORAD 61879·PAYLOAD·🇺🇸 United States

Lançado Nov 9, 2024 de Vandenberg Space Force Base

Loading…

Próximas Passagens (próximas 24 horas)

TLE

AtualizadoSource: CelesTrak SupGP

Época: Sep 15, 2026, 03:40 UTC

1 61879C 24204F   26258.15326389  .00068336  00000+0  56272-3 0  2581
2 61879  53.1562 142.3913 0001026  84.3360 162.7433 15.69683158    10

Acompanhe STARLINK-11324 em tempo real com AllMySat

Download on the App Store